Retour au catalogue

STARLINK-32248

ActifCommunicationsVLEO
NORAD 61219·PAYLOAD·🇺🇸 United States

Lancé Sep 20, 2024 depuis Vandenberg Space Force Base

Loading…

Prochains Passages (prochaines 24 heures)

TLE

FraisSource: CelesTrak SupGP

Époque: Sep 15, 2026, 03:40 UTC

1 61219C 24171V   26258.15326389  .00027635  00000+0  88862-3 0  2589
2 61219  53.1571 161.3665 0001365  81.0814 178.2389 15.31689301    14

Suivez STARLINK-32248 en temps réel avec AllMySat

Download on the App Store